User: anonymous   Login
Location: Unspecified
(0.0000°N, 0.0000°E)
Time: 13:34:34
(UTC+00:00)
Language:

NOSS 8 (H) - Orbit

View from above orbital plane
View from above orbital plane
View from above satellite
View from above satellite

Ground track
Ground track

The orbit data is extracted from the following two-line orbital elements,

1 18025U 87043H   19057.81010065 0.00000550  00000-0  59350-4 0    00
2 18025  63.3035 306.4241 0908793  51.9029 308.0971 13.45130769    07
Epoch (UTC): 26 February 2019 19:26:32
Eccentricity: 0.0908793
inclination: 63.3035°
perigee height: 411 km
apogee height: 1769 km
right ascension of ascending node: 306.4241°
argument of perigee: 51.9029°
revolutions per day: 13.45130769
mean anomaly at epoch: 308.0971°
orbit number at epoch: 0

The dashed part of the orbit path shows where the satellite is in the earth's shadow,  

DLR